TimeCDT,TemperatureF,Dew PointF,Humidity,Sea Level PressureIn,VisibilityMPH,Wind Direction,Wind SpeedMPH,Gust SpeedMPH,PrecipitationIn,Events,Conditions,WindDirDegrees,DateUTC
12:52 AM,75.0,70.0,84,29.87,10.0,South,6.9,-,N/A,,Clear,170,2013-07-23 05:52:00
1:52 AM,75.0,70.0,84,29.86,10.0,South,8.1,-,N/A,,Clear,170,2013-07-23 06:52:00
2:52 AM,75.0,70.0,84,29.85,10.0,South,9.2,-,N/A,,Clear,190,2013-07-23 07:52:00
3:52 AM,73.9,70.0,87,29.82,10.0,SSW,8.1,-,N/A,,Clear,210,2013-07-23 08:52:00
4:29 AM,75.0,70.0,84,29.86,10.0,SW,10.4,-,N/A,Thunderstorm,Thunderstorm,230,2013-07-23 09:29:00
4:52 AM,77.0,70.0,79,29.82,10.0,WSW,15.0,-,N/A,Thunderstorm,Thunderstorm,240,2013-07-23 09:52:00
5:30 AM,75.0,64.9,71,29.86,10.0,SW,15.0,-,0.00,,Partly Cloudy,230,2013-07-23 10:30:00
5:52 AM,73.0,64.0,73,29.83,10.0,WSW,12.7,-,0.00,,Clear,240,2013-07-23 10:52:00
6:52 AM,72.0,64.0,76,29.87,10.0,SSW,5.8,-,N/A,,Clear,200,2013-07-23 11:52:00
7:52 AM,78.1,69.1,74,29.86,10.0,SW,10.4,-,N/A,,Clear,230,2013-07-23 12:52:00
8:52 AM,82.0,72.0,71,29.86,10.0,WSW,12.7,-,N/A,,Clear,240,2013-07-23 13:52:00
9:52 AM,84.9,73.0,67,29.86,10.0,WSW,11.5,-,N/A,,Clear,240,2013-07-23 14:52:00
10:52 AM,88.0,73.0,61,29.86,10.0,West,13.8,-,N/A,,Clear,260,2013-07-23 15:52:00
11:52 AM,91.0,73.0,55,29.87,10.0,West,13.8,21.9,N/A,,Clear,280,2013-07-23 16:52:00
12:52 PM,91.9,73.0,54,29.84,10.0,WSW,10.4,19.6,N/A,,Clear,250,2013-07-23 17:52:00
1:52 PM,93.0,73.0,52,29.84,10.0,WNW,9.2,-,N/A,,Scattered Clouds,300,2013-07-23 18:52:00
2:52 PM,91.0,73.0,55,29.83,10.0,NW,8.1,-,N/A,,Clear,320,2013-07-23 19:52:00
3:52 PM,93.0,73.9,54,29.81,10.0,NNW,13.8,-,N/A,,Partly Cloudy,330,2013-07-23 20:52:00
4:52 PM,91.0,73.9,57,29.78,10.0,NW,5.8,-,N/A,,Clear,310,2013-07-23 21:52:00
5:52 PM,91.9,73.0,54,29.79,10.0,NW,9.2,-,N/A,,Clear,310,2013-07-23 22:52:00
6:52 PM,91.0,72.0,53,29.81,10.0,North,5.8,-,N/A,,Clear,350,2013-07-23 23:52:00
7:52 PM,88.0,71.1,57,29.82,10.0,North,-9999.0,-,N/A,,Clear,0,2013-07-24 00:52:00
8:52 PM,77.0,66.0,69,29.84,10.0,SE,15.0,28.8,N/A,,Clear,140,2013-07-24 01:52:00
9:52 PM,75.0,66.9,76,29.86,10.0,South,15.0,-,N/A,,Scattered Clouds,170,2013-07-24 02:52:00
10:52 PM,73.0,66.9,81,29.85,10.0,South,11.5,-,N/A,,Clear,170,2013-07-24 03:52:00
11:52 PM,73.9,66.9,79,29.86,10.0,SE,8.1,-,N/A,,Clear,140,2013-07-24 04:52:00